Temp
16 16 16 16 17 18 19 18 18 18 18 18 18 18 18 17 17 17 17 17 16 16 16 16 16 16 16 16 16 16 16 16 16 16 17 17 17 17 17 17 17 17 17 17 17 18 18 18 18 18 18 18 18 18 18 19 19 19 18 18 18 17 17 17 15 15 15 16 16 16 16 16 16 16 15 15 15 15 15 15 15 14 14 14 14
15 16 16 16 17 18 18 18 18 18 18 18 18 18 18 17 17 17 17 17 16 16 16 16 16 16 17 17 17 17 17 17 17 17 17 17 17 17 17 17 17 17 17 17 17 17 18 18 17 17 18 18 18 18 18 18 18 18 18 18 18 17 18 17 16 15 16 16 16 16 16 16 16 16 16 16 15 15 15 15 15 15 14 14 14
16 16 16 17 17 17 17 17 17 18 18 18 18 18 18 17 17 17 17 17 16 16 16 16 16 16 17 17 17 17 17 17 17 17 17 17 17 17 17 17 17 17 17 17 17 17 17 17 17 17 17 18 18 18 18 18 18 18 18 18 18 18 18 18 17 16 16 15 16 16 16 16 16 16 16 16 15 15 15 15 15 15 15 14 14
15 14 14 15 16 16 17 17 17 17 17 17 18 18 17 17 17 17 17 17 17 16 16 16 16 16 17 17 16 17 17 17 17 17 17 17 17 17 17 17 17 17 17 17 17 17 17 17 17 17 17 17 17 17 17 17 17 18 17 17 18 18 18 18 17 17 16 16 15 15 16 16 16 16 16 15 15 15 15 15 15 15 15 14 14
14 13 14 15 15 16 16 16 16 16 17 17 17 17 17 17 17 17 17 17 17 17 16 16 16 16 17 17 17 17 17 17 17 17 17 17 17 17 17 17 17 17 17 17 16 17 17 17 16 16 16 17 17 17 17 17 17 17 17 17 17 17 17 17 17 17 17 16 16 15 15 16 16 16 16 16 15 14 15 15 15 14 14 14 14
14 14 14 14 14 15 16 16 16 17 17 17 17 17 17 17 17 17 17 17 17 17 17 17 17 17 17 17 17 17 17 17 17 17 17 16 16 17 17 17 17 16 16 16 16 16 16 16 16 16 16 16 16 16 16 16 16 16 16 16 16 17 17 17 17 17 17 17 16 16 15 15 16 16 16 16 15 15 14 14 14 14 13 13 13
14 14 13 13 14 15 15 16 16 17 17 17 17 17 17 17 16 16 17 17 17 17 17 17 17 17 17 17 17 17 17 17 17 17 16 16 16 16 16 16 16 16 16 16 16 16 16 16 16 16 16 16 16 16 16 16 16 16 16 16 16 16 16 16 16 16 16 16 16 16 16 15 15 15 15 15 15 15 15 14 14 13 13 13 13
14 14 13 14 15 15 15 16 17 17 17 17 16 17 17 17 16 16 16 17 17 17 17 17 17 17 17 17 17 17 16 16 16 16 16 16 16 16 16 16 16 16 16 16 16 16 16 16 16 16 16 15 15 15 16 16 16 16 15 15 16 16 15 15 15 15 15 15 15 15 15 15 15 15 15 15 14 14 14 14 14 13 13 13 13
14 14 14 14 15 15 16 16 16 16 16 16 16 16 16 16 16 16 17 17 17 17 17 17 17 17 17 17 16 16 17 17 16 16 16 16 16 16 16 16 16 16 16 16 15 15 15 15 15 15 15 15 15 15 15 15 16 16 15 15 15 15 15 15 15 15 15 15 15 15 15 14 14 14 14 14 14 13 13 13 13 13 13 12 12
13 13 14 14 14 15 16 16 16 16 16 16 16 16 16 16 16 17 17 17 17 17 17 17 17 17 17 16 16 17 17 17 17 16 16 16 16 16 16 16 16 16 15 15 15 15 15 14 14 14 15 15 15 15 15 15 15 15 15 15 15 15 15 14 14 14 14 14 14 14 14 13 13 13 13 13 12 12 12 12 12 12 12 12 12
14 13 13 14 14 14 15 15 15 16 16 16 15 16 16 17 16 16 16 16 17 17 17 17 17 17 17 16 16 16 17 17 17 16 16 16 16 16 16 16 16 15 15 15 14 14 14 14 14 14 14 14 14 14 14 14 14 15 15 14 14 14 14 14 14 14 14 14 13 13 13 13 12 12 12 12 12 12 11 11 11 11 11 11 10
13 13 13 13 13 14 14 15 15 15 15 15 15 15 16 16 16 16 16 16 16 16 16 16 17 16 16 16 16 16 16 16 16 16 16 16 15 15 15 15 15 15 15 14 14 14 14 14 14 14 14 14 14 14 14 14 14 14 14 14 14 14 14 14 13 13 13 13 13 12 12 12 12 11 11 11 11 11 11 11 11 10 10 10 9
13 12 12 12 13 13 14 14 14 14 14 14 14 15 15 15 15 15 15 16 16 16 16 16 16 16 16 16 16 16 16 16 16 16 16 16 15 15 15 15 15 15 14 14 14 14 13 13 13 13 13 13 13 14 14 14 14 14 14 14 14 13 13 13 13 13 13 13 12 12 12 12 11 11 11 11 10 10 10 10 10 10 10 9 9
12 12 12 12 12 12 13 13 13 13 14 14 14 14 14 14 14 15 15 15 15 15 15 16 16 16 16 16 16 16 16 15 15 16 15 15 15 15 15 15 15 14 14 14 14 13 13 13 13 13 13 13 13 13 14 14 14 14 14 13 13 13 13 13 12 12 12 12 12 12 11 11 11 11 10 10 10 10 10 10 10 9 9 9 9
12 12 12 12 12 12 12 12 13 13 14 14 14 14 14 14 14 14 14 14 15 15 15 15 15 15 15 15 15 15 15 15 15 15 15 15 15 14 14 14 14 14 14 14 14 13 13 13 13 13 13 13 13 13 13 13 13 13 13 13 13 12 12 12 12 12 12 11 11 11 10 10 10 10 10 10 10 10 10 9 9 9 9 8 8
11 12 12 12 12 12 12 12 12 12 12 13 13 13 13 13 14 14 14 14 14 14 14 15 15 15 15 15 15 15 15 15 15 15 15 14 14 14 14 14 14 14 14 14 14 13 13 13 13 13 13 13 13 13 13 13 13 12 12 12 12 12 12 12 11 11 11 11 10 10 10 10 10 10 10 10 10 9 9 9 9 8 8 8 8
11 12 12 12 12 12 12 12 12 12 12 12 12 13 13 13 14 14 14 14 14 14 14 14 14 14 14 15 15 15 15 14 14 14 14 14 14 14 14 14 14 14 14 14 14 14 13 13 13 14 13 13 12 12 13 13 12 12 12 11 11 11 11 11 10 10 10 10 10 10 10 10 10 9 9 9 9 9 8 8 8 8 8 7 6
11 11 12 12 12 12 12 12 12 12 13 12 12 13 13 13 13 13 14 14 14 14 14 14 14 14 14 14 14 14 14 14 14 14 14 14 14 14 14 14 14 14 14 14 14 14 13 13 13 13 13 13 13 12 12 12 12 12 12 11 10 10 10 10 10 10 10 9 9 9 9 9 9 9 9 8 8 8 8 8 7 7 7 6 5
10 11 11 11 12 12 12 12 12 12 12 13 13 13 13 13 13 13 13 14 14 14 14 14 14 14 14 14 14 14 14 14 14 14 14 14 14 14 14 14 14 14 14 14 14 13 13 13 13 13 13 13 13 13 13 12 12 12 12 11 10 10 10 10 9 9 9 9 9 9 9 9 9 8 8 8 8 8 7 7 6 6 6 5 5
10 10 11 11 11 11 11 11 11 11 12 12 12 12 13 13 13 13 13 13 13 13 13 14 14 14 14 14 14 14 14 14 14 14 14 14 14 14 14 14 14 14 14 14 13 13 13 13 13 13 13 13 13 13 13 13 13 12 12 11 10 10 9 9 9 9 9 9 9 9 8 8 8 8 8 8 7 7 7 6 6 5 5 5 5
10 10 10 10 11 11 11 11 11 11 11 11 12 12 12 13 13 13 13 13 13 13 13 14 14 14 14 14 14 14 14 14 14 14 15 15 14 13 13 14 14 14 14 14 13 13 13 13 13 12 13 13 13 13 13 12 12 12 11 11 10 10 9 9 9 8 8 8 8 8 8 8 8 7 7 7 7 6 6 6 5 5 5 4 4
9 9 9 9 10 10 10 10 10 10 10 11 11 12 12 12 12 13 13 13 13 13 13 13 13 14 14 14 14 14 14 14 14 15 15 14 14 13 13 14 14 14 14 13 13 13 13 13 12 12 12 13 13 12 12 12 11 11 10 10 10 10 9 9 9 8 8 8 8 8 7 7 7 7 7 6 6 6 6 5 5 5 4 4 4
8 9 9 9 9 9 9 9 9 10 10 10 10 11 11 12 12 12 12 12 12 13 13 13 13 13 14 14 14 14 14 14 14 15 15 15 14 14 14 14 14 14 14 14 14 13 13 13 12 12 12 12 12 11 11 11 10 10 10 10 10 10 9 9 9 9 8 8 8 7 7 7 6 6 5 5 5 5 5 5 4 4 4 3 3
8 8 8 8 8 8 8 8 9 9 9 9 9 10 10 10 11 11 11 11 11 12 12 13 13 13 13 14 14 14 14 14 14 14 14 15 14 14 14 14 13 13 14 14 14 14 13 13 12 12 12 12 11 11 10 10 10 10 9 9 9 9 9 9 9 8 8 8 7 7 6 6 6 5 5 5 4 4 4 4 4 3 3 3 3
7 7 7 7 7 7 7 8 8 8 8 8 9 9 9 9 9 10 10 10 11 11 11 12 13 13 13 13 14 14 14 14 14 14 14 14 14 14 14 14 14 13 13 13 13 14 13 12 12 12 11 11 11 11 10 10 10 9 9 9 9 9 8 8 8 8 8 7 7 6 6 5 5 5 5 4 4 4 4 3 3 3 2 2 2
6 6 6 6 6 6 6 7 7 7 7 8 8 8 8 8 8 8 9 9 10 10 10 10 11 11 12 12 13 13 12 11 11 12 12 12 13 13 13 13 13 13 13 12 12 12 12 11 11 11 10 10 11 10 10 9 9 9 9 9 8 8 8 8 7 7 7 7 6 6 5 5 5 4 4 4 4 4 3 3 3 2 2 1 1
5 5 5 5 5 5 5 5 6 6 6 7 7 7 7 7 7 7 8 8 8 9 9 9 10 10 11 12 12 12 12 10 10 10 10 10 10 10 11 11 12 12 12 12 12 11 10 10 10 10 10 10 10 9 9 9 9 9 9 8 8 8 7 7 7 7 7 6 6 5 5 5 4 4 4 4 4 3 3 2 2 1 1 1 1
4 4 4 4 4 4 4 4 5 5 5 6 6 6 6 6 6 6 6 6 6 7 7 8 9 10 10 11 11 12 12 11 11 11 10 9 8 8 9 10 10 9 10 10 10 9 9 9 9 9 9 9 9 8 8 9 8 8 8 8 8 7 7 7 7 7 6 6 6 5 5 5 4 4 4 4 3 3 2 2 1 1 1 1 1
4 3 3 3 3 3 4 4 4 4 5 5 5 5 5 5 5 6 6 6 6 6 6 7 8 9 9 10 10 11 11 11 12 12 11 10 9 8 8 8 8 8 9 9 9 9 9 9 8 8 8 8 8 8 8 8 8 8 8 7 7 7 7 7 7 6 6 6 5 5 5 5 4 4 4 3 3 3 2 2 1 1 1 1 1
3 3 3 3 3 3 3 3 4 4 4 4 4 5 5 5 5 5 6 6 6 6 6 7 7 8 8 9 10 10 11 12 12 12 11 11 10 10 9 9 9 9 9 9 9 9 8 8 8 8 8 8 8 8 8 8 8 8 7 7 7 7 7 7 6 6 6 6 5 5 5 4 4 4 3 3 3 2 2 2 2 1 1 1 1
3 3 3 3 3 3 3 3 3 3 3 3 4 4 4 5 6 6 6 6 6 7 7 7 7 7 8 9 9 10 11 11 11 11 12 11 11 11 10 10 9 9 9 9 9 8 8 7 7 8 8 7 7 8 8 8 8 8 7 7 7 7 7 6 6 6 6 5 5 5 4 4 4 4 3 3 3 2 2 2 1 1 1 1 0
2 2 2 2 2 2 3 3 3 3 3 3 3 3 3 3 5 6 6 6 6 6 7 7 7 7 8 8 9 10 10 10 10 10 11 11 11 10 10 10 9 8 8 8 8 8 7 8 8 8 7 7 7 8 8 8 8 7 7 7 6 6 6 6 6 6 5 5 5 4 4 4 4 3 3 3 2 2 2 1 1 1 1 0 0
2 2 2 2 2 2 2 2 3 3 3 3 3 3 2 2 2 4 5 6 6 7 7 7 7 7 7 8 8 9 10 10 10 9 10 10 10 10 10 9 8 8 8 8 8 8 8 8 8 8 7 7 8 8 8 7 7 7 7 7 6 6 6 6 6 5 5 5 5 4 4 4 3 3 3 2 2 2 1 1 1 0 0 0 0
2 2 2 2 2 2 2 2 2 2 2 2 2 2 2 1 1 2 3 4 5 6 6 6 6 7 7 7 8 8 9 9 9 9 9 9 9 9 8 7 7 7 7 7 8 8 8 7 7 7 8 8 8 8 7 7 7 7 7 7 6 6 6 5 5 5 5 4 4 4 3 3 3 3 2 2 2 1 1 0 0 0 0 0 -0
2 2 2 2 2 2 2 2 2 2 2 2 2 2 1 1 1 1 1 2 3 4 5 5 6 6 6 7 7 8 8 8 9 9 9 9 9 8 7 6 5 6 6 6 6 7 7 7 7 8 8 8 7 7 7 7 7 7 7 6 6 6 5 5 5 5 4 4 4 3 3 3 3 2 2 1 1 1 0 0 -0 -0 -0 -0 -0
2 2 2 2 2 2 2 2 2 2 2 2 2 1 1 0 0 0 0 1 1 2 3 4 5 5 5 6 6 7 7 8 8 8 8 8 8 7 6 5 5 4 4 5 5 6 7 7 8 8 8 7 7 7 7 7 7 7 6 6 6 6 5 5 5 4 4 3 3 3 3 3 2 2 1 1 0 0 -0 -0 -0 -0 -0 -0 -0
2 2 2 2 2 2 2 2 2 2 2 2 1 1 0 -0 -0 -1 -1 -0 1 1 2 3 4 4 4 5 5 6 6 6 6 7 7 7 7 6 6 6 5 4 4 4 5 5 6 7 8 8 8 7 7 7 7 7 7 6 6 6 6 5 5 5 4 4 4 3 3 3 2 2 2 1 1 0 -0 -0 -0 -0 -0 -0 -0 -0 -0
2 2 2 2 2 2 2 2 2 2 2 1 1 0 0 -0 -1 -1 -1 -0 0 1 2 2 3 3 3 4 4 4 5 5 5 5 5 5 5 6 6 5 5 4 5 5 5 5 7 7 8 8 8 7 7 7 7 7 6 6 6 6 5 5 5 4 4 4 4 3 3 2 2 2 1 1 0 -0 -0 -1 -1 -0 -0 -0 -0 -0 -0
3 3 3 2 3 2 2 2 2 2 2 1 1 1 0 -1 -2 -2 -1 -0 0 1 1 1 2 2 2 3 3 3 4 4 4 4 4 4 4 4 4 4 4 4 4 4 4 5 6 6 6 7 7 7 7 7 6 6 6 6 6 5 5 5 4 4 4 3 3 3 2 2 2 1 1 0 -0 -0 -1 -1 -1 -0 -0 -0 -0 -0 -0
3 3 3 3 3 3 2 2 2 2 1 1 1 1 -0 -2 -3 -2 -1 -1 -0 1 1 1 1 2 2 2 3 3 3 3 4 4 4 4 4 4 4 4 4 4 4 4 4 5 5 5 5 6 6 6 6 6 6 6 6 6 5 5 5 5 4 4 3 3 3 2 2 2 1 1 0 0 -0 -0 -1 -1 -0 -0 -0 -0 -0 0 0
3 3 3 3 3 3 2 2 2 2 1 1 1 1 -0 -2 -3 -3 -2 -1 -1 0 1 1 1 1 2 2 2 2 3 2 2 3 3 3 3 4 4 4 4 4 4 5 5 5 5 5 6 6 5 5 5 6 6 5 5 5 5 5 5 4 3 3 3 3 2 2 2 1 1 0 0 -0 -0 -0 -0 -0 -0 -0 -0 0 0 0 0
3 3 3 3 3 3 3 2 2 2 1 1 1 0 -0 -1 -2 -3 -2 -1 -1 -1 -0 0 1 1 2 2 2 3 3 3 2 3 3 3 3 4 4 3 4 4 5 5 5 5 5 5 5 5 5 5 5 5 5 5 4 5 5 4 4 4 3 3 2 2 2 2 1 1 1 0 -0 -1 -1 -1 -0 -0 -0 -0 0 0 0 0 0
3 3 3 3 3 3 3 2 2 2 1 1 1 0 -0 -1 -2 -2 -2 -1 -1 -1 -1 -0 0 1 1 2 2 2 3 3 3 3 2 2 3 4 4 4 4 4 5 5 5 5 5 5 5 5 5 5 5 5 4 4 4 4 4 4 4 3 3 2 2 2 2 1 1 1 1 0 -0 -1 -1 -1 -1 -1 -0 0 0 0 0 0 0
3 3 3 3 3 3 3 2 2 2 1 1 0 0 -0 -1 -2 -2 -2 -1 -1 -1 -1 -1 -0 0 0 1 1 2 2 3 2 2 2 2 3 3 3 3 4 4 4 4 5 5 5 5 5 5 5 4 4 4 4 4 4 4 4 3 3 3 2 2 2 2 1 1 1 1 0 0 -0 -1 -1 -1 -1 -1 0 0 0 0 0 0 0
3 3 3 3 3 3 3 2 2 2 1 1 0 1 0 -1 -2 -2 -1 -1 -1 -1 -1 -1 -1 -1 -0 -0 0 0 1 1 1 1 1 2 3 3 3 3 3 4 4 4 4 5 5 5 5 4 4 4 3 3 3 3 3 3 3 3 2 2 2 2 2 2 1 1 1 1 0 0 -0 -0 -1 -1 -1 -0 0 0 0 0 0 0 0
3 3 3 3 3 3 3 2 2 2 1 1 1 0 0 -1 -1 -1 -1 -1 -1 -1 -1 -1 -1 -1 -1 -1 -1 -1 -1 -0 -0 -0 0 1 1 2 2 2 3 3 3 3 4 4 4 4 4 4 3 3 3 3 2 2 2 2 2 2 2 2 2 1 1 1 1 1 1 1 0 -0 -0 -0 -1 -1 -1 -0 0 0 0 -0 0 0 0
3 3 3 3 3 3 3 2 2 2 2 1 1 0 -0 -0 -0 -1 -1 -1 -1 -1 -1 -1 -1 -1 -1 -1 -1 -1 -1 -1 -1 -1 -1 -0 0 1 1 2 2 2 2 3 3 3 3 3 3 3 3 2 2 2 2 2 2 2 1 1 1 1 1 1 1 1 1 1 1 0 0 0 -0 -0 -1 -1 -0 -0 0 0 0 0 0 0 1
4 4 3 3 3 3 3 3 2 2 2 1 1 0 0 0 -0 -1 -1 -1 -1 -1 -1 -1 -1 -1 -1 -1 -1 -0 -0 -0 -0 -0 -0 0 0 1 1 1 2 2 2 2 2 2 2 2 2 2 2 2 1 1 1 1 1 1 1 1 1 1 1 1 1 1 1 1 1 0 0 0 -0 -0 -1 -1 -0 -0 -0 0 0 0 0 1 1
4 4 4 3 3 3 3 3 3 2 2 2 1 1 0 0 0 -0 -1 -1 -1 -1 -1 -1 -1 -1 -0 -1 -1 -0 -0 -0 0 0 0 0 1 1 1 1 1 1 1 1 1 1 1 1 1 1 1 1 1 1 1 1 1 1 1 1 0 0 0 0 1 0 0 0 0 0 0 0 -0 -0 -1 -1 -1 -0 -0 0 0 0 0 1 1
4 4 4 3 3 3 3 3 3 3 2 2 1 1 1 1 1 0 0 -0 -0 -0 -0 -0 -1 -1 -1 -1 -1 -1 -1 -0 -0 -0 -0 0 0 0 0 1 0 0 0 0 -0 -0 -0 -0 -0 -0 0 0 0 0 0 0 0 0 0 -0 -0 -0 0 0 0 0 0 0 0 -0 -0 -0 -1 -1 -1 -1 -1 -1 -0 -0 0 0 0 1 1
3 3 3 3 3 3 3 4 3 3 2 2 1 1 1 1 1 1 0 0 0 -0 -0 -0 -1 -1 -1 -1 -1 -1 -1 -1 -1 -1 -1 -1 -0 -0 -0 -0 -0 -0 -1 -1 -1 -1 -1 -1 -1 -1 -0 -0 -0 -0 -0 -0 -0 -1 -1 -1 -1 -0 -0 -0 -0 -0 -0 -0 -0 -1 -1 -1 -1 -1 -1 -1 -1 -1 -1 -0 -0 0 0 0 1
Height
806 808 809 811 812 812 813 814 816 818 819 821 824 826 827 829 831 833 834 836 837 837 838 838 840 841 841 842 842 842 842 843 843 843 843 842 842 842 843 843 843 843 844 844 844 845 845 845 846 846 847 847 848 848 848 848 848 847 847 849 851 853 853 853 855 857 859 860 861 861 862 862 862 863 863 864 864 866 866 867 868 868 868 868 868
805 806 808 812 814 813 813 814 816 818 820 823 826 828 829 830 832 834 835 837 839 839 839 840 841 842 842 843 843 843 843 843 843 843 843 843 843 843 843 843 843 844 844 845 845 845 846 846 846 847 847 848 848 849 848 848 848 847 848 849 851 853 853 853 854 856 858 859 860 861 861 862 862 862 863 863 864 865 866 867 867 868 868 868 868
803 805 807 810 813 813 813 815 817 818 820 824 826 828 830 831 832 834 835 838 840 841 841 841 841 842 842 843 843 843 844 844 844 843 843 843 843 844 844 844 844 844 844 845 845 846 846 846 847 847 848 849 849 849 849 849 849 848 849 850 851 853 853 853 853 855 857 859 860 861 861 861 862 862 862 863 864 864 865 866 866 867 868 868 868
802 805 808 810 812 813 814 816 818 820 822 824 826 828 830 832 832 833 834 837 840 841 841 842 841 841 841 842 843 843 844 844 844 844 844 844 844 844 845 845 846 846 846 845 845 846 846 846 847 848 848 849 850 850 850 850 850 850 850 851 852 852 853 853 854 855 856 858 860 861 861 861 862 862 862 863 864 864 864 865 865 866 867 868 868
802 805 808 811 813 813 814 817 819 822 823 825 826 828 830 832 833 832 834 836 838 840 841 841 841 840 841 841 842 843 843 843 843 843 844 844 844 845 845 845 846 846 846 846 846 846 846 846 846 847 848 849 850 851 851 851 851 851 851 851 852 852 853 853 854 855 856 858 859 861 861 861 862 862 862 863 863 863 864 864 864 865 866 867 867
800 803 807 810 812 812 814 817 819 821 823 824 825 827 829 831 833 833 834 834 836 837 838 839 839 839 840 841 842 842 842 843 843 843 844 844 845 845 845 845 846 846 847 847 847 846 846 846 846 847 848 849 850 851 851 852 852 852 852 852 852 852 852 853 854 855 856 858 859 860 861 861 861 862 862 863 863 863 863 863 864 865 866 866 866
798 801 805 809 811 811 813 816 818 819 820 821 823 825 826 829 832 834 834 835 835 836 836 837 838 838 839 840 841 841 842 842 842 843 843 844 844 845 845 846 846 846 847 847 848 848 847 847 847 847 848 849 850 851 851 851 852 852 853 853 853 853 853 853 854 855 856 858 859 860 860 861 861 861 862 862 862 862 862 863 863 864 865 865 865
798 801 805 808 810 810 811 814 816 817 818 820 822 823 824 826 830 832 834 834 835 834 835 835 836 837 838 839 840 840 841 841 842 842 843 844 844 844 844 845 845 846 846 847 847 848 848 847 847 847 848 849 850 851 851 851 851 852 853 853 853 853 853 854 855 855 856 857 858 859 860 861 861 861 862 862 862 862 862 862 863 863 864 863 863
799 802 804 806 807 808 810 812 814 816 817 818 820 822 823 825 828 830 832 832 833 834 834 835 836 836 837 838 839 839 840 840 841 841 842 843 843 844 844 844 844 845 845 846 846 847 847 847 847 847 848 849 850 851 851 851 851 851 852 852 853 853 854 854 855 855 856 857 858 859 860 860 860 861 861 861 861 861 861 862 862 862 863 863 863
800 801 803 805 806 807 809 812 814 816 817 818 819 821 823 825 826 828 829 830 831 833 834 834 835 836 836 837 838 839 839 839 839 840 841 841 842 843 843 843 843 843 844 844 845 845 846 847 847 847 848 849 850 851 851 852 852 852 852 852 852 853 853 854 855 855 856 857 858 859 859 860 860 860 860 861 861 861 861 861 861 862 862 862 862
800 802 803 804 806 808 810 812 813 815 816 817 819 820 822 824 825 826 828 829 830 831 832 833 834 835 836 836 837 838 838 838 838 838 839 839 840 841 842 842 842 842 842 842 843 844 845 846 846 847 848 849 850 851 852 852 852 852 852 852 852 853 853 854 854 855 856 856 857 858 859 859 859 860 860 860 860 861 861 861 861 861 861 861 861
802 804 804 806 807 808 809 811 812 814 815 817 818 820 822 823 824 826 827 827 829 830 831 832 833 834 835 835 836 836 837 837 837 837 837 838 839 840 840 841 840 840 840 840 841 842 844 845 846 847 848 848 849 850 851 852 852 852 852 852 852 852 852 853 854 855 855 856 857 858 858 859 859 859 860 860 860 860 860 860 860 860 860 860 860
805 806 807 807 808 809 810 811 812 814 816 817 819 820 822 823 824 825 826 827 828 828 830 831 831 832 833 834 834 835 835 835 835 836 836 837 837 838 839 839 839 839 839 839 840 842 843 844 845 846 847 848 849 850 851 852 852 852 852 852 852 852 852 853 854 855 855 856 857 858 858 859 859 859 860 860 860 860 860 860 859 859 859 859 859
809 810 810 810 810 811 811 812 812 814 815 816 818 820 822 823 824 825 826 827 827 828 829 830 830 831 831 832 833 833 833 834 834 834 835 835 836 836 837 837 837 838 838 839 840 842 843 843 844 845 845 846 848 849 850 851 851 852 852 851 852 852 852 853 854 854 855 856 856 857 858 858 859 859 859 859 859 859 859 858 858 858 858 858 858
811 812 813 813 814 814 814 814 814 815 815 815 816 818 820 821 823 824 825 826 826 827 828 828 829 830 830 831 831 832 832 832 832 832 833 833 834 835 835 836 836 837 838 839 840 841 842 843 844 844 845 846 847 848 849 850 850 851 851 852 852 853 853 853 854 854 855 855 856 857 857 858 858 858 858 858 858 858 858 857 857 857 857 856 857
813 814 814 815 816 816 817 817 817 817 817 817 817 817 818 819 821 823 824 824 825 826 827 827 828 828 828 829 830 830 830 831 831 831 831 831 832 833 834 834 835 836 837 838 840 841 842 843 844 844 845 846 847 848 849 849 850 851 851 852 852 853 853 853 854 854 855 856 856 857 858 858 858 858 858 858 857 857 857 856 856 855 855 855 856
816 816 816 816 817 817 818 818 818 818 819 818 818 818 818 819 820 821 822 823 824 824 825 826 826 827 827 828 828 828 829 829 829 829 829 830 831 832 832 833 834 835 836 837 838 839 841 842 843 844 845 845 846 847 848 849 849 850 851 852 852 853 853 854 854 855 855 856 857 857 858 858 858 857 857 857 856 856 856 855 855 855 854 855 855
820 818 818 818 818 818 818 819 819 819 819 819 818 818 818 819 820 821 821 822 822 823 824 824 825 825 826 826 827 827 827 827 828 828 829 830 831 831 832 832 833 834 835 836 838 839 840 842 843 844 844 845 846 846 847 848 848 849 850 851 852 852 853 854 854 855 856 856 857 857 857 857 857 857 856 856 855 855 855 854 854 854 854 854 854
822 821 820 819 819 819 819 819 819 819 819 819 819 819 819 820 820 821 821 822 822 823 823 823 823 823 824 825 825 825 826 826 827 828 829 830 830 831 831 831 832 833 834 836 837 839 840 841 842 843 843 844 845 846 846 847 847 848 849 849 850 851 852 853 854 855 856 856 857 857 856 856 856 856 855 855 855 854 854 853 853 853 853 854 854
824 823 822 821 820 820 819 820 820 819 820 820 820 820 820 820 820 821 821 822 822 823 823 822 822 822 823 823 824 824 825 826 827 828 828 829 830 830 831 831 831 832 833 834 836 838 839 840 841 842 843 843 844 845 845 846 846 847 848 848 849 851 852 853 854 855 856 857 857 856 856 856 855 855 855 854 854 853 853 853 853 853 853 854 854
824 824 823 822 822 821 821 821 821 820 821 820 820 820 820 821 821 822 822 823 822 822 822 822 822 822 822 823 823 824 825 825 826 827 827 828 828 829 829 830 830 831 832 833 834 836 837 838 839 840 841 842 843 843 844 845 845 846 847 848 849 851 852 853 854 855 855 856 855 855 855 855 855 854 854 854 853 853 853 853 853 853 853 853 853
826 824 823 823 823 823 822 822 822 822 822 822 821 821 821 822 823 823 823 823 822 822 822 821 821 821 822 822 823 823 824 825 825 826 826 826 826 827 828 829 830 830 831 832 833 834 835 836 837 839 840 841 842 842 843 844 845 846 847 848 849 850 851 852 853 853 854 854 854 854 854 854 854 854 853 853 853 853 853 853 853 853 853 853 852
826 825 824 824 824 823 824 823 823 823 823 823 823 823 822 823 823 822 822 822 821 821 821 820 820 820 820 821 821 822 823 823 824 824 824 824 825 825 826 827 828 829 829 830 831 832 833 834 835 837 839 839 840 841 842 843 844 845 847 848 849 850 851 851 852 852 852 853 853 853 853 853 853 853 853 853 853 854 854 854 853 853 853 852 852
827 826 825 825 824 824 824 824 824 824 825 825 825 825 824 824 823 822 821 820 821 821 820 820 819 819 819 819 819 820 821 821 822 823 823 823 823 823 824 825 826 827 827 828 828 829 830 832 833 835 836 837 839 840 841 842 844 845 846 847 848 849 850 850 851 851 851 851 851 852 852 852 852 852 853 853 854 854 854 853 853 852 852 851 851
829 828 827 826 825 824 824 823 824 824 825 826 826 825 825 825 824 823 821 820 820 820 820 820 819 818 818 818 817 818 819 819 820 820 821 821 821 822 822 822 823 824 825 825 826 828 829 830 832 833 835 836 837 838 839 841 842 844 845 846 847 848 849 849 850 850 850 851 851 851 852 852 852 853 853 853 853 853 853 852 851 851 850 849 849
831 830 829 829 828 827 826 826 826 826 826 826 825 825 825 824 823 823 822 821 820 819 818 818 818 818 818 818 817 817 817 817 818 819 819 819 820 820 821 820 821 821 822 824 825 827 829 830 831 833 834 835 836 837 838 839 841 842 844 845 846 847 848 849 850 850 850 851 851 852 852 852 853 853 853 853 853 852 851 851 850 849 849 848 848
832 832 832 832 831 831 830 830 829 829 828 827 826 826 825 823 822 822 821 820 820 819 817 816 816 816 815 815 816 816 815 816 818 819 819 818 818 819 819 819 819 820 820 821 823 825 828 830 831 833 834 835 837 838 838 838 840 841 842 844 845 846 847 848 849 850 850 851 851 852 852 853 853 853 853 852 851 850 850 849 849 849 848 848 847
833 833 833 833 833 833 833 832 832 831 830 829 828 827 826 825 824 824 823 822 821 819 818 817 816 815 814 812 812 813 812 813 815 817 817 816 817 818 819 819 818 819 819 819 821 824 827 829 831 833 835 836 837 838 838 838 839 840 842 843 844 845 846 848 848 849 850 850 851 852 852 852 852 852 852 851 850 850 850 849 849 848 848 847 846
834 834 834 834 834 834 834 834 833 833 832 831 830 829 828 827 826 825 824 823 822 820 818 816 816 814 813 811 811 811 810 811 812 813 814 815 815 817 819 820 819 820 822 822 823 825 827 829 831 833 834 836 837 838 838 838 839 840 841 843 844 845 846 847 848 849 849 850 851 851 851 852 852 851 851 850 850 850 849 848 848 847 847 846 845
835 835 835 835 835 835 835 834 834 833 832 831 830 828 827 827 826 825 824 822 821 820 818 816 814 813 811 810 810 810 810 810 810 811 811 812 813 814 816 818 818 820 822 824 825 826 827 828 830 832 833 835 837 838 838 839 839 840 841 843 844 845 845 846 847 848 849 850 850 850 851 851 851 851 850 850 850 849 848 848 847 847 846 845 844
835 835 835 835 835 835 835 834 834 833 832 831 830 828 826 825 824 824 823 821 819 818 817 815 814 812 811 809 808 808 809 809 809 809 809 809 810 811 812 813 815 817 819 822 823 824 826 828 830 831 833 835 836 836 837 838 839 840 841 842 843 844 845 846 847 848 849 849 849 850 850 850 851 850 850 850 849 848 848 847 846 845 844 843 842
836 836 835 835 835 835 834 834 833 832 831 830 829 828 826 824 822 821 820 820 818 817 816 814 813 812 810 808 807 806 806 807 807 808 807 807 808 808 809 810 812 814 817 818 819 820 823 825 826 827 830 832 833 833 834 836 837 839 840 841 843 844 845 846 846 847 848 848 849 849 850 850 850 850 850 849 849 848 847 846 845 844 843 842 841
836 835 835 835 835 834 834 833 832 831 830 829 828 827 826 824 822 820 818 817 816 815 814 813 811 810 809 807 806 804 804 804 804 804 805 806 807 807 808 809 810 812 815 816 816 816 818 819 820 822 826 828 828 830 832 834 836 837 839 840 842 843 844 845 846 847 847 848 849 849 849 850 850 849 849 849 848 847 846 845 844 843 842 841 840
835 835 835 834 834 833 833 832 831 830 829 828 827 826 825 824 823 821 819 816 814 813 812 811 810 808 807 806 805 803 802 802 802 802 802 803 805 806 807 809 810 812 813 814 813 813 814 815 817 819 822 824 825 828 831 833 835 836 837 839 841 842 843 844 845 846 847 848 848 848 849 849 849 849 849 848 847 846 845 844 843 843 842 841 839
835 834 834 833 833 832 832 831 830 829 828 827 826 825 824 823 822 821 819 817 815 812 811 809 808 807 806 804 803 802 801 801 800 800 800 801 802 804 805 807 809 811 812 813 813 813 813 814 816 818 819 822 824 827 830 833 834 835 836 838 840 842 842 843 844 845 846 847 847 848 848 848 848 849 849 848 847 845 844 843 843 842 841 840 839
834 834 833 833 832 832 831 830 829 829 828 827 825 824 823 822 820 819 818 817 815 813 811 809 807 806 805 804 802 801 801 800 799 799 799 800 801 802 804 806 808 809 811 813 813 814 814 814 816 817 819 821 823 825 829 832 833 834 836 838 840 841 842 843 844 845 846 847 847 848 848 848 849 849 848 847 846 845 844 843 842 841 840 840 838
835 834 833 833 832 832 831 830 829 829 828 826 825 823 822 820 819 818 816 815 814 812 810 808 806 805 804 804 803 802 801 800 800 800 799 800 800 801 803 804 806 808 811 813 814 814 815 815 815 816 818 820 822 825 828 830 832 834 836 838 839 840 841 842 843 844 846 846 847 847 848 848 848 848 848 846 845 844 843 842 841 841 840 839 838
835 834 834 833 833 832 831 831 830 829 828 826 825 823 821 820 818 817 816 814 813 811 809 807 806 805 804 804 804 803 802 801 801 801 801 801 801 801 802 803 805 806 809 811 812 813 814 815 815 816 817 820 822 824 826 828 831 833 835 837 838 840 841 842 843 844 845 846 846 847 848 848 848 848 847 845 844 843 842 841 841 840 839 838 837
835 835 834 833 833 832 832 831 831 829 828 827 825 823 821 819 818 817 816 814 813 811 809 807 806 805 804 804 803 803 803 802 803 803 803 803 802 802 802 803 805 806 807 809 810 812 813 814 814 815 817 819 820 822 825 827 830 832 834 836 837 839 840 841 842 843 844 845 846 847 847 847 847 847 846 844 843 842 841 841 840 839 838 837 836
835 835 834 834 833 833 833 832 831 830 828 827 825 823 821 820 819 817 816 815 813 811 809 808 806 805 805 804 803 803 802 802 803 804 804 804 804 803 803 804 806 807 808 809 810 811 812 813 814 815 817 817 818 820 823 826 829 831 833 834 836 837 839 840 841 842 843 844 845 846 846 846 846 846 845 843 842 841 840 840 839 839 838 836 835
835 835 834 834 834 834 833 832 831 830 829 827 826 824 822 820 819 818 817 815 814 812 810 809 808 806 806 805 804 803 803 803 803 803 804 804 804 803 803 804 806 807 808 809 809 811 812 813 814 815 816 818 820 822 824 825 827 829 831 833 835 836 838 839 840 841 843 844 844 845 845 845 845 844 844 842 841 840 840 839 839 838 837 836 834
835 835 834 834 834 834 833 832 831 831 829 828 826 824 823 821 820 819 818 816 815 813 811 810 808 807 806 805 805 804 803 803 803 803 804 805 805 803 803 804 805 806 808 808 809 810 811 813 814 815 817 820 822 824 826 828 829 830 831 832 834 836 838 839 840 841 842 843 843 843 843 843 844 843 842 841 840 840 839 839 838 837 836 835 834
835 835 835 835 834 833 833 832 832 831 830 829 827 825 824 822 821 820 819 817 816 814 812 811 810 808 807 806 805 804 804 804 803 803 804 805 804 803 803 804 805 807 808 808 809 810 811 813 815 817 819 822 824 826 828 830 831 832 832 833 834 836 838 839 840 841 841 841 842 842 842 842 842 842 841 840 840 839 839 838 837 836 835 834 833
835 835 835 835 834 834 833 833 833 832 831 830 828 827 825 824 823 822 820 819 817 815 814 813 811 810 808 807 806 805 805 805 805 805 805 804 803 803 803 805 806 808 809 810 811 812 813 814 816 819 821 824 826 827 829 831 832 833 833 834 835 836 838 839 840 840 840 840 840 841 841 841 841 841 840 839 839 838 838 837 837 836 835 833 831
835 835 835 835 834 834 834 833 833 833 832 830 829 828 826 825 824 823 822 821 819 818 816 815 813 812 811 809 808 807 807 808 808 807 806 805 804 804 805 807 808 809 811 812 813 814 815 816 818 820 823 825 827 829 830 832 833 834 834 835 836 837 837 838 839 839 839 839 839 840 840 841 840 839 839 839 838 838 837 837 836 835 834 832 831
835 835 835 835 834 834 834 833 833 833 832 831 830 828 827 826 826 825 824 823 821 820 819 818 816 815 813 812 811 811 811 811 811 810 809 808 807 807 808 810 811 812 813 814 816 816 817 819 820 822 824 827 829 830 831 832 833 834 835 836 836 837 837 838 838 838 838 839 839 839 840 840 839 839 838 838 838 837 837 836 836 834 833 832 830
835 834 834 834 834 834 834 833 833 833 832 831 830 829 828 828 827 827 826 825 824 823 822 821 819 818 817 816 815 815 814 814 814 813 813 812 810 810 811 813 814 815 816 818 819 820 821 822 824 825 827 828 830 831 832 833 834 834 835 836 836 837 837 837 837 837 838 838 839 839 839 838 838 838 838 837 837 837 836 836 835 834 832 831 830
834 834 834 833 833 834 834 833 833 833 832 832 831 830 830 829 828 828 828 827 826 825 824 823 822 822 821 820 819 819 818 818 818 817 817 816 815 816 816 817 818 819 820 821 822 823 824 825 826 827 829 830 831 832 833 834 834 835 835 836 836 837 837 837 837 837 837 838 838 838 838 837 837 837 837 837 837 836 836 835 834 833 832 830 829
834 834 833 833 833 833 833 832 832 832 832 832 832 831 831 830 830 830 829 829 828 828 827 826 825 825 824 823 823 822 822 821 821 821 821 820 820 820 821 821 822 823 823 824 825 826 827 828 829 829 830 831 832 832 833 834 835 835 836 836 836 836 836 836 836 837 837 837 837 837 836 836 836 836 836 836 836 836 835 834 833 832 831 830 829
834 834 833 833 833 832 832 832 831 832 832 833 832 832 831 831 831 831 831 830 830 829 829 829 828 828 827 826 826 825 825 824 824 824 823 823 824 824 824 824 825 825 826 827 828 828 829 830 831 831 831 832 832 833 834 835 835 836 836 836 836 836 836 836 837 837 836 836 836 836 836 836 836 836 835 835 835 834 834 833 832 832 831 830 828
834 833 833 833 832 832 832 831 831 831 832 832 832 832 832 832 832 832 832 832 831 831 831 830 830 830 830 829 829 828 827 827 826 826 826 826 826 826 827 827 827 828 828 829 830 831 831 832 832 832 833 833 834 834 835 835 836 836 836 836 837 836 837 837 837 836 836 835 835 835 835 835 835 835 834 834 834 833 833 832 832 831 830 829 828
Wind_Speed
11 10 11 12 16 23 26 25 25 25 24 24 24 23 24 24 23 22 19 17 19 20 19 19 19 19 18 18 17 17 17 17 16 15 16 17 17 17 15 14 14 13 12 12 11 11 13 13 11 10 10 11 12 13 12 10 9 12 20 25 25 23 20 18 14 11 12 12 12 13 11 10 9 6 6 7 7 6 6 5 4 3 3 3 3
12 11 15 16 16 21 25 25 25 25 24 22 21 22 24 24 22 20 18 17 19 19 18 19 18 17 18 18 17 17 17 17 16 16 16 16 15 15 14 14 14 13 12 12 11 9 9 10 10 9 8 10 12 13 13 12 12 15 21 23 23 21 18 16 17 14 11 12 14 14 12 11 10 8 6 4 4 5 5 5 4 4 3 1 1
16 16 20 21 19 19 22 23 23 23 24 22 21 23 24 23 21 20 19 18 18 17 17 18 17 17 19 19 17 17 17 16 16 15 14 14 15 16 16 15 15 14 13 12 10 9 7 8 9 8 8 10 11 12 13 14 14 17 20 20 20 19 16 15 16 16 13 13 15 15 14 12 10 9 7 5 4 3 3 3 5 6 5 3 1
17 17 20 20 19 21 22 23 23 22 21 21 22 23 22 22 22 20 20 20 18 17 17 16 16 18 19 18 16 16 16 16 17 16 13 13 16 17 16 15 14 13 13 13 12 10 9 9 9 8 8 10 10 11 13 15 15 16 17 16 16 15 14 14 14 16 15 14 13 13 14 12 10 10 10 8 5 6 5 5 7 7 6 4 2
17 17 19 18 18 21 22 21 20 20 19 18 20 21 21 21 21 19 20 21 19 18 17 17 17 18 18 18 17 16 15 16 18 17 14 13 16 17 16 14 13 13 13 13 12 12 11 10 10 8 8 10 10 10 13 14 15 15 15 14 14 13 12 11 11 13 15 14 12 9 9 10 9 9 11 8 5 4 3 3 4 4 4 3 2
20 19 20 18 16 20 21 19 18 20 20 18 19 20 20 18 17 18 20 22 21 19 19 19 19 18 18 18 18 17 16 17 17 17 16 15 15 15 15 14 13 12 13 12 12 12 12 11 11 9 8 9 9 9 11 12 12 13 14 14 13 13 12 10 9 11 13 13 10 7 6 6 6 7 10 9 6 4 3 6 8 7 6 5 3
20 22 22 21 19 20 22 21 21 22 22 21 21 21 20 18 18 19 20 22 22 21 21 20 19 19 19 19 19 18 17 18 17 17 16 15 15 14 13 13 12 12 11 11 11 11 11 11 11 11 9 8 9 8 8 10 10 11 11 12 12 12 13 11 10 11 11 10 8 6 4 4 5 6 8 8 7 5 5 7 8 6 5 3 1
20 22 23 23 21 20 21 21 21 21 22 22 22 20 20 20 22 22 22 23 24 22 22 22 20 19 19 19 19 19 19 18 18 17 16 15 15 15 13 12 12 12 11 11 11 10 11 11 11 11 10 8 8 7 7 8 10 10 10 10 10 12 13 13 11 11 10 8 7 6 4 3 3 5 8 8 7 6 6 7 6 3 2 1 3
18 20 21 21 18 18 20 20 20 21 22 21 20 19 20 22 23 22 23 24 24 22 22 23 21 19 19 18 18 19 19 18 18 17 16 15 15 14 13 12 11 12 12 12 12 11 12 12 12 11 11 10 8 7 7 7 8 9 9 8 8 10 11 10 9 9 8 7 6 5 5 4 2 4 6 7 5 5 5 4 4 3 2 3 3
13 15 17 18 17 17 18 18 19 21 20 18 17 17 20 22 22 22 23 23 23 22 22 22 22 20 19 18 17 18 17 17 18 17 16 15 15 13 12 12 11 11 12 13 13 12 12 12 12 11 11 10 9 9 9 8 7 8 8 7 6 6 7 7 7 7 8 7 6 5 4 3 2 4 6 5 5 5 4 2 1 1 3 5 5
9 11 12 14 15 15 16 16 17 20 20 18 16 15 18 21 22 22 22 22 22 21 21 22 22 21 20 19 18 17 17 16 17 16 16 16 15 13 13 12 12 12 13 13 14 14 13 12 12 12 11 11 11 10 11 10 9 8 7 6 4 4 5 6 7 7 8 8 6 5 5 6 6 7 7 7 5 3 2 2 3 5 7 7 7
8 10 11 12 12 14 15 16 16 18 20 18 16 15 17 18 20 20 20 21 21 22 22 22 21 20 20 19 18 17 17 17 16 14 14 14 14 13 13 12 11 12 12 12 13 14 15 14 13 13 12 11 12 12 11 10 9 8 7 6 5 5 5 5 6 6 7 8 7 5 5 6 7 6 6 5 3 2 3 4 6 7 8 8 8
7 9 10 11 12 12 14 15 15 17 19 18 16 15 14 15 16 17 19 20 21 21 21 20 20 19 19 18 17 17 17 17 16 14 13 13 13 13 12 11 11 10 10 11 13 15 16 16 15 14 13 12 12 12 11 10 9 7 5 5 4 4 4 5 5 5 6 6 6 5 4 4 4 4 3 2 1 3 6 8 9 9 9 9 9
10 9 9 9 10 11 12 12 12 13 15 16 17 16 15 14 14 14 15 17 18 19 18 18 18 18 18 17 17 17 17 17 15 14 13 13 14 13 12 12 11 9 10 13 15 15 16 17 17 16 16 14 14 13 11 10 9 7 6 6 5 4 4 4 4 5 5 5 5 5 4 4 4 3 1 2 4 6 8 8 8 9 9 8 8
20 16 11 8 7 9 10 11 10 10 11 13 16 17 16 14 13 12 12 13 14 15 16 16 17 17 17 17 16 17 17 15 14 13 13 14 14 13 13 14 12 9 10 14 15 15 15 16 18 18 17 17 15 13 11 10 9 9 9 9 8 8 7 6 6 5 3 3 3 4 5 5 3 1 2 5 6 7 8 7 8 8 7 7 6
28 26 22 17 10 6 5 6 6 6 7 9 12 13 13 12 11 11 11 12 13 14 14 15 16 17 17 16 16 16 16 14 14 14 14 15 14 14 13 14 13 11 11 14 15 16 16 17 17 16 17 17 16 13 11 9 9 9 10 10 9 9 8 8 8 7 6 6 6 5 5 3 1 2 3 5 5 5 6 6 6 6 5 6 5
27 28 28 26 22 16 10 7 4 2 3 5 7 8 8 7 8 10 11 13 14 15 15 15 15 16 16 17 17 17 16 15 15 15 15 16 15 14 14 14 14 14 13 14 15 16 18 19 18 17 17 17 16 13 11 9 9 9 10 10 10 9 9 9 8 7 6 6 5 4 2 1 1 1 2 2 3 3 4 5 5 4 5 5 3
25 26 26 26 26 25 22 18 16 12 8 4 3 5 7 7 7 8 9 11 14 15 15 15 16 17 17 17 17 16 15 15 15 15 16 17 15 13 14 17 18 17 16 15 15 17 19 20 19 17 17 16 14 12 11 10 10 10 11 12 12 10 10 10 8 8 7 6 4 3 2 1 1 1 1 2 3 4 4 5 4 4 4 4 4
24 24 23 23 23 24 24 23 23 22 19 16 12 9 6 8 9 10 9 10 12 13 14 14 15 15 15 15 14 13 14 16 17 16 16 16 15 14 16 19 20 19 19 18 18 18 19 19 17 16 15 14 12 11 10 10 10 10 11 12 13 11 10 10 9 8 7 5 4 3 2 2 2 1 1 2 3 4 4 4 4 4 4 4 5
21 21 20 20 20 21 21 22 22 22 21 19 18 17 15 10 7 9 12 12 11 11 13 13 14 14 13 13 13 14 16 18 18 17 17 17 16 15 17 21 23 21 21 21 21 21 20 18 16 16 14 13 11 10 9 8 8 8 9 11 12 11 11 10 10 8 5 3 3 4 3 1 1 1 2 3 4 4 5 5 4 4 3 4 4
20 20 19 20 19 19 20 19 19 20 21 19 16 16 17 15 12 8 8 12 13 14 14 14 15 15 14 14 15 16 18 19 19 19 19 19 18 17 17 19 23 23 21 22 22 22 22 21 19 16 14 12 10 9 8 7 8 9 9 10 10 9 9 9 8 6 4 4 4 4 3 3 3 3 2 3 4 4 5 5 4 3 3 3 4
19 19 19 20 20 19 19 19 17 17 19 19 18 17 16 15 13 13 12 10 10 14 17 17 18 18 17 18 19 19 20 20 20 21 21 20 20 19 17 16 20 22 22 23 23 23 22 22 21 18 15 13 11 10 9 9 9 10 10 9 9 8 7 6 5 5 5 5 5 5 5 4 4 4 4 4 4 4 3 2 2 1 2 3 4
18 18 19 20 20 19 19 19 18 17 17 18 18 17 17 17 15 15 15 15 13 10 11 15 17 20 21 22 22 22 22 22 22 22 23 22 20 20 19 17 18 23 25 24 24 24 24 23 22 19 17 14 12 11 11 10 10 10 9 8 7 7 6 6 5 5 6 6 6 6 6 4 4 4 5 5 4 3 2 2 2 3 4 4 4
17 18 19 19 20 20 19 18 18 17 16 16 16 16 17 18 17 16 16 16 17 16 10 9 12 15 20 23 24 25 24 24 24 24 23 23 22 20 20 19 18 22 27 27 25 25 26 25 23 20 18 15 13 11 10 9 8 8 7 6 5 5 5 6 6 6 6 6 6 6 6 4 3 3 4 4 4 4 4 5 6 7 8 8 8
17 18 19 19 19 19 18 18 18 17 16 16 16 17 18 18 18 18 18 17 17 18 15 9 9 11 14 18 22 26 27 26 26 26 24 22 21 20 19 21 20 20 24 29 28 26 26 25 23 21 19 16 13 12 10 9 8 6 5 4 4 4 5 6 7 6 4 4 5 6 5 4 3 3 3 4 5 6 8 10 11 12 12 12 11
18 18 18 18 17 17 18 18 17 17 16 16 16 16 17 18 19 19 19 17 16 18 19 16 12 10 12 15 18 22 25 22 19 22 23 21 20 19 19 19 19 17 19 25 27 25 25 25 23 21 18 15 13 12 11 10 8 6 4 4 4 5 6 6 5 3 3 4 5 5 4 3 2 2 3 5 8 10 11 13 15 14 12 11 10
18 18 18 17 17 17 17 18 17 16 16 16 16 15 16 17 19 20 20 20 19 18 18 18 17 15 15 16 18 21 23 21 18 19 21 19 18 18 17 18 19 17 19 23 25 24 25 24 22 19 17 14 13 12 11 10 8 7 6 6 6 7 7 5 3 2 3 5 5 5 3 2 1 2 5 8 10 11 12 14 14 12 10 10 10
16 17 17 17 17 17 16 17 16 16 16 16 16 17 17 18 19 19 19 20 21 20 18 17 17 18 19 20 20 22 23 22 23 25 26 21 15 11 10 12 12 11 13 18 21 23 25 24 21 18 16 14 13 12 10 9 8 8 8 9 9 8 7 5 2 2 3 4 4 3 2 0 2 4 7 9 10 10 11 12 11 9 9 9 10
14 15 15 16 16 16 16 15 16 15 15 15 15 15 16 17 17 17 16 17 18 19 19 18 17 17 18 20 22 23 23 23 25 27 28 25 17 11 10 9 6 4 4 10 15 20 22 21 19 18 15 14 13 11 10 10 9 9 10 10 9 8 7 5 4 3 3 3 2 2 1 2 3 5 7 7 8 8 8 9 9 9 9 10 12
13 13 14 15 15 14 14 14 14 14 14 15 15 15 15 15 15 15 15 15 16 17 18 17 17 17 17 17 19 23 23 22 23 25 24 22 20 18 19 17 11 7 9 12 15 19 22 22 21 19 16 14 14 13 11 10 10 11 11 11 9 8 6 6 5 5 4 4 3 2 2 2 4 5 6 6 7 6 7 8 8 9 10 11 12
13 13 14 14 13 13 13 12 12 12 13 14 16 17 16 15 14 13 13 13 13 15 16 15 15 15 16 16 17 21 23 21 22 24 23 22 21 21 21 22 20 18 19 21 23 25 26 24 21 18 16 16 16 13 10 10 12 13 13 11 9 7 5 5 5 5 4 4 3 2 2 3 5 6 6 7 6 6 6 7 7 7 8 8 9
12 12 12 12 12 12 12 12 13 14 14 15 16 17 16 15 15 14 13 13 13 13 13 14 14 14 14 15 16 19 23 23 23 25 25 24 25 25 24 24 23 21 23 27 29 30 29 27 23 21 21 20 16 12 12 13 15 15 14 12 10 8 6 6 6 6 5 4 4 3 3 4 5 5 6 7 7 7 7 7 6 5 6 8 10
10 11 10 10 11 12 12 13 15 16 16 16 15 14 14 14 15 15 15 14 13 11 10 11 13 15 14 14 14 15 18 21 21 22 23 24 26 26 26 26 25 25 28 32 32 32 32 30 27 26 24 20 15 13 14 16 16 16 15 13 11 10 9 8 6 6 5 5 4 4 4 4 5 5 6 6 7 6 6 5 4 6 8 11 12
8 9 9 10 11 12 14 15 15 15 14 14 13 13 12 12 13 15 16 16 15 14 10 8 9 12 14 13 13 12 13 15 16 16 18 22 26 26 24 24 26 27 30 32 32 32 32 31 29 26 23 18 15 15 16 17 17 18 17 14 12 12 11 8 6 6 5 5 4 4 3 3 4 4 5 5 5 4 3 3 5 7 9 10 13
8 8 9 10 12 14 14 14 13 13 13 13 12 12 12 13 14 14 14 15 16 17 15 11 9 10 12 12 12 12 11 12 13 12 14 17 21 22 21 22 27 30 29 26 26 28 31 29 26 22 19 15 15 17 18 18 18 18 17 16 14 14 12 10 7 5 5 5 4 3 2 2 3 4 4 4 3 2 2 3 5 7 8 10 13
8 9 10 11 12 13 12 12 13 14 14 14 13 13 13 13 14 14 14 13 14 15 16 15 12 10 10 10 10 9 9 9 10 11 12 14 17 18 19 23 26 27 24 18 17 21 25 25 22 18 15 14 16 18 20 19 18 18 18 16 15 15 13 10 7 6 6 6 4 2 2 2 2 3 3 3 2 2 3 4 5 6 8 11 13
9 10 10 11 10 10 10 10 13 14 15 15 14 13 14 14 14 15 15 15 15 14 15 15 13 9 8 8 7 6 4 4 5 6 7 9 11 14 18 21 23 22 17 10 8 10 13 15 15 13 12 15 17 18 18 18 18 19 17 15 14 14 12 9 8 7 7 6 4 2 2 3 3 3 3 2 3 3 3 4 4 6 9 12 13
9 9 9 9 8 8 9 10 12 14 15 15 14 13 13 14 14 15 16 16 16 14 13 13 12 9 7 7 6 5 4 4 4 5 7 9 10 11 13 17 21 22 17 12 10 11 12 14 15 14 14 15 17 17 18 21 21 19 16 15 14 13 11 10 10 8 7 6 4 3 3 4 3 3 2 2 3 3 3 4 5 7 11 13 13
9 8 8 7 7 7 9 10 12 13 14 14 14 14 14 13 14 15 16 16 15 14 13 13 12 10 8 6 6 6 5 6 6 5 5 7 8 8 9 11 14 16 16 17 18 19 19 19 18 18 17 18 19 20 22 23 21 19 17 17 15 13 11 11 10 9 8 6 5 4 4 4 4 3 1 1 2 3 3 4 5 8 12 13 13
9 9 8 6 7 8 9 10 11 13 14 13 14 15 15 14 14 13 14 15 14 13 13 13 13 13 11 7 5 5 5 6 7 7 6 6 6 6 6 6 6 6 10 14 16 17 18 15 12 13 16 18 20 24 26 24 22 20 19 17 15 13 12 12 11 10 8 6 5 5 5 5 5 4 3 1 2 4 4 4 7 9 10 11 12
9 9 7 6 7 8 8 10 11 13 13 13 13 14 14 14 13 13 13 14 13 13 12 12 12 12 11 10 8 7 6 6 5 6 6 6 5 5 5 6 5 3 6 10 13 14 14 12 10 11 14 17 21 25 25 24 23 21 19 16 15 14 13 12 11 9 7 6 6 6 6 6 5 5 4 2 0 1 3 5 7 8 8 10 12
8 7 7 7 6 7 8 9 9 10 12 12 13 13 13 13 13 12 12 13 13 12 12 11 11 10 9 9 10 10 6 3 1 3 3 2 3 3 4 6 6 5 6 9 13 13 13 13 13 15 18 20 22 22 21 20 19 19 17 16 15 14 12 10 8 6 5 5 5 5 5 5 5 5 5 3 3 2 3 5 6 7 9 11 14
6 6 6 5 5 6 7 7 6 8 10 11 12 12 13 13 13 12 12 13 12 12 11 11 10 9 7 6 8 8 3 2 3 2 3 4 4 4 4 5 7 7 8 10 12 13 15 17 19 20 21 22 21 20 18 16 15 16 16 15 13 11 9 7 5 4 3 3 3 3 4 4 6 7 6 5 4 2 3 4 5 7 11 13 14
3 4 4 4 4 5 5 4 4 7 8 9 10 12 13 14 14 13 13 12 12 12 12 11 9 9 7 6 5 6 5 4 3 3 4 6 6 6 7 9 10 12 15 18 19 19 21 23 24 24 23 22 20 19 18 16 14 13 12 11 10 9 7 6 5 4 2 1 1 2 3 4 6 7 7 6 3 2 1 2 5 10 13 14 14
1 2 3 2 1 2 2 2 3 5 6 7 9 11 13 14 14 13 12 12 12 13 13 13 12 11 12 11 11 12 12 10 9 10 12 13 14 14 16 18 20 22 24 25 25 25 25 26 25 25 24 22 20 19 18 15 13 11 9 8 7 7 7 5 4 2 1 0 1 2 4 5 6 7 8 5 2 2 1 3 7 12 14 14 14
3 4 4 3 3 2 3 3 1 2 5 6 8 10 12 13 13 12 12 12 13 14 14 15 15 15 16 16 16 17 17 16 16 17 19 20 22 23 24 24 24 25 25 25 25 25 24 24 24 23 22 21 19 17 15 13 11 9 8 7 6 5 4 3 2 1 1 1 2 3 4 5 5 6 7 4 2 2 3 5 9 13 14 13 12
2 3 4 4 4 4 4 4 3 1 4 6 6 8 10 12 11 11 11 12 13 14 15 16 17 18 19 19 19 20 20 21 21 21 22 24 25 27 26 26 26 25 25 24 24 23 23 22 21 20 19 17 15 13 12 10 9 8 7 6 4 3 2 1 1 2 3 4 4 4 4 4 5 6 6 3 2 3 4 6 9 12 13 11 10
3 4 5 6 5 5 5 5 4 2 2 4 5 6 9 10 10 10 10 11 12 14 15 16 16 17 18 19 20 21 22 23 23 24 25 26 26 26 26 26 25 24 24 23 22 21 20 19 18 17 15 13 11 11 10 9 8 7 5 4 3 1 0 0 1 3 4 5 5 4 3 4 5 5 5 3 2 2 4 6 9 11 12 10 8
3 4 5 5 5 6 6 6 7 6 3 4 5 6 8 9 9 10 10 11 11 12 13 14 15 15 16 16 18 18 19 20 20 20 21 21 21 21 20 20 20 19 19 19 18 17 17 16 15 14 13 11 10 9 8 7 6 5 4 3 3 2 2 1 1 2 3 4 4 3 3 4 5 5 5 4 3 2 4 6 8 11 12 9 7
3 4 4 4 5 5 5 5 8 9 7 5 5 7 9 10 9 9 9 10 10 10 11 11 12 12 12 13 14 15 15 16 16 16 16 16 15 15 14 14 14 14 15 15 15 14 14 13 12 11 11 10 9 9 7 7 6 6 5 5 5 4 3 3 1 1 0 1 1 2 3 4 4 5 4 3 3 3 4 5 7 10 11 9 7
4 2 3 4 5 5 4 4 7 9 9 7 6 7 9 9 8 8 7 7 7 7 7 8 8 9 9 10 12 13 14 14 14 14 15 15 15 14 14 13 13 14 14 13 13 13 12 11 11 10 10 10 10 9 9 8 7 7 7 6 5 4 3 3 3 3 2 2 2 3 3 3 3 3 3 2 3 4 4 4 6 8 10 10 8
Wind_Direction
147 157 167 165 168 176 179 179 178 179 179 176 175 175 173 171 170 168 169 171 169 165 164 165 164 163 162 161 158 155 152 151 149 145 139 136 137 136 135 133 130 131 136 140 140 136 134 131 120 114 116 114 119 131 140 144 143 164 184 184 178 179 179 163 144 153 179 184 174 170 173 171 165 162 149 137 142 149 147 153 164 160 139 113 93
141 151 162 167 172 176 177 177 177 177 172 169 174 176 173 170 169 168 167 170 173 171 168 167 165 165 166 165 164 160 156 154 152 152 150 148 147 146 146 147 145 144 146 147 147 146 142 129 113 109 113 113 121 134 140 143 145 152 165 170 169 174 180 167 151 152 167 182 183 179 183 189 186 182 176 158 154 164 170 181 195 206 209 197 75
152 154 157 159 163 165 166 167 165 163 163 166 173 174 171 170 172 170 168 170 176 175 169 167 167 167 169 169 168 165 163 161 159 160 163 163 163 161 158 158 158 156 155 153 151 153 153 139 121 113 117 117 118 127 136 140 145 147 152 158 161 167 176 172 159 155 158 171 184 188 192 199 203 203 201 191 191 207 209 220 234 231 228 237 305
150 142 142 143 147 151 150 145 141 142 147 156 166 170 172 174 175 171 168 170 175 176 172 173 172 171 172 172 171 173 172 170 169 170 170 166 166 167 164 165 169 167 162 158 155 154 153 148 141 132 131 129 121 123 132 136 141 143 145 152 160 164 171 173 168 164 162 165 176 189 197 205 213 217 215 212 219 235 245 257 256 248 242 240 248
157 143 143 142 146 150 144 136 136 141 145 150 159 166 171 175 175 173 170 171 176 179 179 181 180 176 175 175 175 177 176 174 175 179 179 171 166 169 171 172 174 173 171 168 163 164 164 159 156 153 147 142 134 132 135 135 136 138 140 144 150 156 163 169 174 172 170 172 173 174 187 202 217 223 221 217 208 207 220 228 213 204 201 197 187
176 169 164 160 159 156 151 152 160 166 169 167 165 166 168 174 180 180 176 175 177 180 182 187 188 185 184 183 182 183 183 182 183 184 183 180 176 174 177 180 180 176 175 175 172 172 175 171 167 169 167 160 155 148 144 143 138 135 135 137 139 142 145 152 166 172 174 179 181 169 163 180 199 210 215 217 206 181 150 137 139 142 143 141 138
184 181 173 170 171 160 153 163 173 174 177 178 177 178 176 180 191 192 186 183 182 182 186 191 194 194 194 192 190 190 187 187 188 187 185 187 189 186 186 190 192 190 186 186 187 189 190 186 180 180 180 176 174 171 163 159 152 140 134 135 137 136 133 136 146 157 163 168 176 178 167 155 162 179 198 212 211 196 172 155 144 136 137 138 122
178 177 171 171 174 163 157 168 177 176 177 179 182 187 184 185 194 196 191 190 189 188 190 193 196 197 197 195 193 191 190 190 192 192 191 193 197 200 202 204 204 207 208 206 207 211 211 205 196 191 190 186 183 187 186 177 168 156 143 138 139 135 131 132 135 137 141 145 152 169 182 178 164 168 183 195 193 182 183 186 187 199 219 274 307
168 171 173 174 173 169 170 177 180 177 179 181 184 189 188 186 191 194 193 193 195 196 195 197 199 199 197 196 194 193 196 201 204 202 201 203 205 209 214 216 218 221 223 223 222 223 220 214 210 205 201 197 190 188 189 181 171 167 162 155 149 141 138 139 141 140 142 144 146 160 177 189 206 191 182 185 181 168 174 188 200 226 271 296 301
157 163 174 175 172 175 182 186 186 184 186 184 183 188 193 192 192 194 196 198 200 202 202 201 202 203 201 198 196 198 203 210 212 213 215 215 213 217 223 225 227 229 229 227 224 222 217 212 211 208 201 196 192 188 189 185 174 167 167 168 163 158 157 155 154 156 159 158 159 166 164 151 158 175 164 154 152 154 156 157 138 345 324 315 312
158 157 167 169 172 179 187 190 192 195 195 189 184 190 198 200 198 199 202 204 203 203 202 201 203 205 205 202 200 203 206 210 214 218 223 222 222 226 229 228 232 237 235 229 222 215 205 199 200 198 191 186 184 183 186 187 185 182 182 188 197 202 196 179 166 167 170 167 165 167 159 138 131 141 141 133 133 131 97 37 6 353 349 345 331
156 151 155 157 167 181 191 196 198 201 199 190 185 187 191 196 197 198 199 199 197 196 195 197 199 202 205 206 205 206 208 210 213 217 220 222 223 224 225 229 235 238 233 223 212 204 193 187 188 185 180 181 184 185 187 189 194 200 202 205 206 203 203 198 188 186 184 177 168 160 155 145 138 139 139 132 116 69 15 355 347 344 348 348 332
118 126 136 146 163 179 190 197 201 204 204 198 193 188 183 184 185 186 190 191 191 191 191 193 196 199 202 205 207 208 208 209 211 215 219 221 222 223 227 231 230 227 220 205 194 189 185 179 177 174 173 178 181 180 180 178 177 178 182 189 190 185 192 200 200 201 199 191 184 177 168 162 159 155 149 132 20 349 337 336 336 335 336 335 328
82 95 109 121 145 166 180 189 192 197 201 203 205 203 199 192 184 180 186 190 192 194 194 196 199 203 206 210 212 211 211 211 214 218 221 223 225 226 224 219 213 208 202 193 185 184 185 179 171 167 167 168 167 166 164 158 149 141 138 141 144 145 152 164 178 194 206 214 220 216 198 186 186 181 169 340 336 334 331 328 326 325 327 329 332
63 68 74 82 116 152 168 172 173 181 192 199 205 208 208 205 200 193 193 197 201 203 204 206 209 211 212 214 215 215 214 214 217 221 222 222 221 216 208 204 202 199 195 190 185 185 187 183 175 170 167 166 165 165 161 154 143 135 135 135 130 127 125 125 128 130 137 154 172 177 168 161 167 203 331 334 328 326 325 323 323 324 326 330 340
55 56 57 58 70 106 150 155 156 174 193 203 208 211 212 213 212 210 207 207 211 213 211 213 216 216 215 216 218 219 221 223 223 223 220 214 206 201 202 204 205 203 196 190 189 188 188 186 180 176 173 171 169 169 167 161 154 148 148 146 140 136 132 127 124 117 111 115 123 133 141 138 94 334 332 328 324 327 329 331 332 328 327 333 347
49 50 50 53 57 62 63 68 75 109 192 217 228 228 230 229 221 217 215 212 212 215 218 222 226 227 226 226 227 230 232 230 223 215 206 198 194 197 202 201 195 191 187 186 189 189 188 187 183 177 174 172 170 170 170 167 165 165 166 162 156 151 144 138 135 133 131 133 132 126 115 77 16 5 0 343 335 336 337 341 338 326 329 345 356
45 46 46 47 49 52 53 53 51 49 42 14 308 270 266 263 248 234 230 225 220 221 224 228 231 234 235 236 236 236 231 219 208 199 192 191 194 196 194 186 178 174 171 173 179 181 179 180 181 177 173 170 168 169 171 172 174 178 180 175 169 163 156 150 148 146 144 141 131 119 118 139 155 176 238 282 302 310 314 323 320 311 324 345 346
43 45 45 44 44 45 46 47 46 43 37 33 29 14 334 293 268 253 244 238 234 231 229 229 230 232 235 237 236 230 217 203 195 190 190 195 199 196 190 185 178 171 168 167 168 171 172 173 178 180 177 172 172 177 181 185 185 184 188 184 174 165 159 153 149 147 144 133 122 130 154 172 187 229 284 312 323 327 329 330 326 325 330 337 342
40 43 43 43 41 39 38 38 38 35 31 30 33 31 25 11 325 277 257 252 251 245 237 234 233 232 230 227 221 213 203 196 194 196 199 204 203 195 192 191 184 175 173 173 171 172 174 176 179 183 183 177 176 180 181 187 187 179 183 188 179 166 159 155 155 159 160 150 151 162 168 157 124 62 39 36 27 25 31 36 31 24 11 354 350
32 35 37 39 38 35 31 28 28 28 24 21 22 22 22 23 16 348 296 270 258 248 241 236 233 231 225 215 209 205 202 201 202 205 209 212 207 198 196 198 195 189 183 182 183 182 182 184 183 184 186 182 175 171 168 169 168 160 163 176 175 163 159 162 170 182 188 180 172 164 148 131 118 100 73 52 48 47 49 54 58 54 35 8 354
25 25 27 30 31 31 27 21 17 16 13 10 10 10 8 6 7 7 358 328 283 254 240 233 231 230 227 219 212 209 209 212 213 213 213 213 210 205 202 201 203 203 197 191 191 190 188 188 186 183 183 180 170 164 160 158 157 154 154 161 165 167 175 187 198 196 177 168 165 148 128 122 110 92 79 68 62 56 48 54 56 24 353 347 341
17 19 21 20 20 22 21 17 15 13 8 3 0 360 358 354 350 354 360 359 347 312 264 244 237 232 231 230 226 222 220 220 221 221 218 215 213 213 212 209 208 212 210 205 200 196 192 190 187 181 178 176 168 160 156 154 154 153 152 154 161 170 180 187 188 176 159 155 153 139 123 109 90 79 74 68 65 53 28 358 329 316 315 319 322
14 17 20 20 19 18 17 14 13 12 10 7 3 1 358 351 347 346 345 348 351 346 322 275 253 245 240 239 237 235 232 227 224 223 221 220 219 218 218 216 212 213 216 216 211 203 195 192 188 180 177 174 166 158 154 154 154 151 146 147 152 161 169 172 170 163 152 145 141 134 124 110 93 77 59 45 31 7 349 339 331 325 319 313 308
28 26 24 23 23 20 16 12 10 8 6 4 5 6 2 356 353 353 349 343 340 341 335 310 273 259 251 249 247 243 239 234 229 225 222 222 223 223 223 222 219 215 216 218 216 209 200 194 187 180 177 173 168 164 162 160 158 151 143 141 146 157 164 163 160 157 152 145 142 139 134 120 92 55 30 11 350 340 337 334 332 328 323 320 317
46 43 39 34 31 27 22 17 12 8 5 3 3 3 1 359 0 3 3 357 346 339 336 327 308 280 257 256 258 249 241 241 239 232 227 224 223 223 223 220 218 215 212 214 216 208 197 190 184 178 176 174 174 175 170 164 161 156 155 159 163 167 168 160 154 161 166 160 156 152 141 116 70 29 2 342 335 337 339 338 336 334 334 336 338
50 49 46 41 36 31 26 21 16 10 8 7 5 4 3 3 6 9 9 3 354 346 341 331 321 309 288 269 258 247 244 249 248 240 238 233 222 218 218 213 211 210 205 208 212 203 188 182 179 176 174 174 178 179 171 164 163 163 166 172 170 168 167 160 149 154 158 155 154 151 139 105 27 352 341 338 341 346 347 345 343 342 344 346 343
43 43 40 37 35 32 28 22 16 11 6 3 2 2 3 3 5 9 8 2 355 348 343 335 324 314 303 286 264 246 240 239 235 234 238 232 214 202 202 195 191 192 194 197 195 185 178 174 171 170 172 174 176 174 166 161 161 160 163 168 170 172 172 169 165 164 157 151 152 153 154 307 337 341 342 344 348 349 347 347 348 347 346 341 332
35 36 34 33 33 31 28 24 17 10 5 360 355 353 354 356 356 356 356 357 356 349 340 336 332 321 308 291 267 246 236 231 228 229 234 234 230 227 210 180 136 92 179 190 179 172 173 173 172 174 178 179 179 177 174 169 164 163 166 169 172 180 188 194 205 206 193 190 198 210 246 313 337 342 343 343 342 342 344 349 350 343 336 330 323
31 31 28 28 27 25 24 24 21 17 12 5 356 344 336 336 342 347 346 345 349 350 342 335 334 327 314 293 266 246 242 241 234 228 231 238 243 243 232 224 228 230 209 197 189 184 182 180 180 181 182 185 188 186 181 178 175 173 174 174 176 184 198 212 220 215 209 218 235 247 273 313 326 329 330 328 328 335 345 348 341 331 327 328 328
30 29 25 23 23 22 24 27 26 23 16 8 2 355 342 327 321 329 338 336 336 341 342 337 333 326 316 301 273 250 245 246 240 237 241 242 237 235 236 236 235 224 207 197 191 187 183 180 178 180 186 192 196 193 190 194 192 185 182 183 182 187 204 218 216 208 211 227 243 247 262 300 318 323 324 320 319 330 337 333 326 322 326 334 336
24 25 23 19 17 20 25 26 21 14 7 1 0 3 1 349 330 319 321 326 328 331 336 337 334 326 317 310 293 266 253 251 249 247 250 247 238 238 242 240 232 220 208 198 188 183 184 183 181 184 191 196 198 199 203 205 198 191 192 194 192 194 209 215 209 210 222 236 245 252 274 306 320 323 321 314 310 315 320 319 320 330 341 344 339
16 19 16 9 8 11 13 8 2 0 1 2 2 5 8 5 353 337 324 318 316 316 321 326 328 326 318 311 304 286 267 261 258 255 252 247 241 241 242 238 231 219 205 195 188 186 188 188 186 188 193 196 198 205 211 208 201 197 199 201 198 202 211 212 206 206 216 227 237 252 276 302 310 312 313 308 303 304 310 316 334 349 350 346 340
10 10 6 360 357 356 355 355 356 360 4 7 10 11 7 0 354 348 340 331 323 317 313 307 310 317 316 310 305 295 275 263 259 257 251 243 240 241 238 230 222 210 199 196 196 192 188 187 187 188 191 196 205 216 217 211 205 203 203 202 203 206 206 200 190 188 193 203 215 229 250 270 279 286 291 289 287 293 306 331 351 353 350 345 340
3 358 354 353 351 349 353 1 9 13 13 11 7 3 356 348 343 342 340 335 327 323 322 316 303 301 307 306 302 299 288 270 260 257 251 240 236 234 224 210 201 195 194 201 205 198 191 189 189 190 193 198 208 218 218 213 209 206 199 193 195 198 192 181 175 175 178 184 193 200 217 240 255 266 273 275 280 296 325 350 356 352 345 340 337
358 352 349 349 351 357 11 24 25 20 14 7 359 352 349 347 346 344 341 335 327 324 325 324 314 301 296 295 291 290 291 283 267 257 249 240 233 222 207 198 195 194 197 207 209 201 197 194 190 190 197 205 210 215 218 214 206 196 188 185 188 188 181 174 173 174 173 176 181 184 201 238 269 281 279 286 313 329 338 350 351 338 335 338 338
353 355 357 358 3 18 35 38 29 20 11 3 359 357 355 354 354 354 351 346 339 334 331 329 322 306 292 288 281 267 263 265 254 239 226 221 219 214 210 207 201 195 195 207 212 203 202 200 193 192 203 213 216 217 214 204 191 182 181 183 183 179 174 171 172 174 178 185 190 204 246 273 293 295 289 312 346 347 343 349 342 328 330 338 340
4 5 8 12 22 43 53 42 28 18 11 8 6 2 357 356 358 0 359 352 347 347 346 342 336 323 303 291 283 270 252 233 223 214 196 186 186 193 203 206 200 193 192 198 199 197 203 212 213 210 212 220 226 220 204 189 181 177 176 174 170 168 169 169 169 174 185 195 201 224 266 284 287 285 300 350 10 6 358 350 336 327 331 336 338
18 23 28 33 48 66 60 42 25 16 14 14 12 6 1 0 1 1 359 354 352 357 3 2 356 349 335 309 289 279 263 238 225 213 188 180 180 175 174 185 194 197 195 191 189 194 205 215 219 217 220 228 227 211 191 178 172 171 171 167 165 168 172 172 174 180 187 195 210 238 263 268 259 251 254 347 3 1 0 340 323 327 333 335 337
29 38 47 60 75 75 58 39 25 20 19 18 12 9 8 8 4 0 359 357 353 355 5 12 10 5 0 346 319 302 286 260 244 237 232 230 221 195 173 173 187 205 206 199 195 199 209 217 221 222 222 217 201 185 176 171 168 168 168 168 170 172 173 174 179 183 186 201 228 244 249 249 246 239 226 243 337 348 342 322 318 325 331 331 332
36 49 68 86 86 71 49 32 24 22 22 19 14 12 13 13 11 6 2 0 356 352 357 8 13 9 6 0 348 334 318 295 259 232 233 245 236 207 191 190 187 195 215 212 204 202 207 214 217 209 197 183 171 166 165 165 165 163 163 165 167 167 167 169 175 183 198 223 239 241 242 245 242 233 225 221 286 316 307 313 325 331 330 329 334
41 63 92 99 81 52 29 22 20 21 22 21 18 16 15 15 18 17 10 7 3 355 352 358 4 4 2 358 353 345 326 289 202 138 144 178 194 183 186 197 202 210 216 207 199 195 195 192 184 174 164 159 160 162 160 157 156 157 156 157 159 160 162 167 177 196 218 232 239 243 248 250 242 232 225 213 202 234 301 326 340 340 335 337 340
54 75 99 98 65 31 15 14 19 22 21 18 18 22 24 25 28 27 19 13 9 5 2 2 3 6 10 4 356 355 349 196 186 166 158 161 159 153 161 184 201 205 190 175 171 171 168 161 153 150 150 153 156 158 154 152 154 154 152 152 153 155 161 168 178 191 203 219 244 255 259 261 251 236 221 213 220 263 332 339 335 338 340 343 346
62 85 107 97 52 21 8 5 13 19 17 15 20 30 36 39 40 37 28 22 23 25 27 26 24 26 38 49 45 50 80 124 157 165 148 133 123 122 134 149 158 157 150 145 145 149 150 147 143 142 143 144 145 145 143 143 144 143 143 144 145 147 151 155 154 151 145 126 267 257 259 267 257 234 214 214 249 321 353 313 322 339 347 349 350
179 159 154 143 29 350 329 325 2 20 20 19 30 41 48 50 49 45 39 38 43 46 47 50 55 60 64 73 82 87 95 106 115 116 115 115 116 119 126 132 135 136 135 136 139 141 142 142 142 141 138 137 136 136 134 132 131 128 127 131 138 143 147 148 143 136 127 72 309 257 253 260 252 225 209 215 283 339 316 289 321 341 350 352 352
184 192 201 231 255 244 237 252 293 32 41 38 43 52 58 59 57 54 51 52 56 59 59 63 68 74 78 82 88 92 97 103 105 105 107 111 115 119 123 128 130 131 131 133 136 137 138 139 140 138 134 132 131 129 127 126 127 128 129 133 139 142 143 148 161 210 248 271 278 256 246 253 247 222 210 219 281 302 280 297 326 344 353 354 352
199 217 229 245 247 228 220 231 237 108 64 57 55 62 68 69 69 68 66 65 66 67 68 70 73 76 80 85 88 91 94 96 98 99 102 105 109 114 119 123 125 126 126 127 128 128 129 130 130 129 128 127 126 124 124 125 128 131 133 131 129 127 131 176 239 267 267 262 258 245 240 250 243 220 211 221 254 264 274 301 328 346 357 357 351
237 230 222 225 226 216 211 218 223 207 99 78 79 81 78 77 78 81 80 78 76 76 76 77 78 81 84 88 90 92 94 95 96 97 99 101 104 108 111 114 116 117 117 116 116 117 119 121 122 121 121 120 120 121 125 126 126 125 120 112 110 105 78 265 268 278 267 254 247 238 231 231 221 209 209 216 224 253 283 303 327 348 359 359 352
225 205 203 210 210 206 210 221 226 221 186 117 105 103 95 87 83 83 84 82 81 81 80 81 84 87 90 92 95 96 95 95 95 95 97 99 101 104 105 107 108 109 109 109 111 113 114 116 117 117 117 118 118 119 119 117 114 110 102 97 98 88 62 53 278 267 256 245 245 239 221 212 208 207 211 215 219 248 286 301 324 347 359 358 345
214 199 209 210 192 185 199 219 222 214 194 156 128 120 114 105 95 89 88 85 81 78 77 78 83 89 92 95 98 99 97 96 96 97 98 99 101 104 106 107 107 108 109 111 114 116 117 118 119 118 117 117 116 115 115 114 111 107 104 101 96 88 81 82 79 70 149 205 212 199 190 193 197 200 205 217 237 269 299 308 319 338 353 356 339
222 244 252 215 184 174 179 195 202 200 193 176 155 142 133 125 114 107 99 84 69 68 73 76 78 84 91 97 101 101 101 101 102 102 103 104 106 108 110 110 110 111 113 114 117 118 119 119 118 115 112 113 113 113 115 115 111 108 105 99 90 83 79 67 52 49 63 97 142 165 177 187 192 197 212 236 259 286 310 317 313 324 343 355 347